Volver al catálogo

COSMOS 1275 DEB

ActivoPO
NORAD 42191·DEBRIS·🇷🇺 Russia

Lanzado Jun 4, 1981 desde Plesetsk Cosmodrome

Loading…

Próximos Pases (próximas 24 horas)

TLE

EnvejeciendoSource: Space-Track

Época: Sep 9, 2026, 04:01 UTC

1 42191U 81053TF  26252.16755726  .00001243  00000-0  68105-3 0  9993
2 42191  82.8189  59.0419 0037195  74.5853 285.9427 14.10811642655012

Sigue COSMOS 1275 DEB en tiempo real con AllMySat

Download on the App Store